Погода Березино

Погода Березино : погода сейчас, прогноз погоды и архив. Всё, что Вы хотите узнать о погоде Березино!

Хотите узнать прогноз погоды Березино? Тогда Вам сюда: Погода Березино

Поиск расширенной информации на нашем сайте:

Другие новости

Новости СМИ2

Главная страница сайта

Новости сайта

03.07.2017

Напоминаем, что на нашем специализированном сайте Метеоцентр.Азия вы можете получить высокодетализированные автоматические прогнозы погоды по пунктам России, СНГ и мира в авиационном формате (включающие направление и скорость ветра, видимость, явления погоды, количество и форму облачности, нижнюю и верхнюю границу облачности).


Погода Березино - сегодня

Время (UTC), дата Ветер
(°,м/с) 
Видим.   Явления Облачность Т
(°С)
Тd
(°С)
f(%) Тe
(°С)
Pmin
(гПа)
dP
(гПа)
Po
(мм)
O2
(г/м3)
Тmin Tmax R s Состояние
почвы
18 17.06.18 010 (С) 10 км    8/0 средняя, верхняя 
[Ac cast|Ci]
+19.1 +14.5 75 +29  1016  0.1  749  279    +21.8       
21 17.06.18 тихо ()   10 км    3/0 верхняя 
[Cc]
+13.9 +13.5 97 +20  1016.6  0.3  749  284           
00 18.06.18 тихо ()   4200 м  дымка  3/0 верхняя 
[Ci sp]
+12 +11.7 98 +16  1016.6  -0.1  749  287           
06 18.06.18 060 (СВ) 10 км  {туман}  9/0 средняя, верхняя 
[Ac und|Cs]
+18.2 +15.1 82 +29  1016.7  0.3  749  280  +11.6         
09 18.06.18 130 (ЮВ) 10 км    8/0 верхняя 
[Cs]
+24.1 +14.7 56 +32  1016.5  0.2  749  274           
12 18.06.18 250 (З) 10 км    9/5 600 м средняя, верхняя 
[Cu med, cong|Ac cuf|Ci fib]
+26.4 +14.6 48 +34  1015.8  -0.6  749  272           
15 18.06.18 300 (СЗ) 10 км    8/3 600 м кучево-дожд., средняя, верхняя 
[Cb calv|Ac cuf|Ci fib]
+27.6 +11.2 36 +30  1014.5  -1.1  748  272           
18 18.06.18 250 (З) 10 км    8/0 средняя, верхняя 
[Ac cuf|Ci fib]
+24.7 +12.8 47 +30  1015  0.3  748  274    +27.9       
21 18.06.18 тихо ()   10 км    4/0 средняя, верхняя 
[Ac cast|Ci sp]
+17.9 +17.6 98 +31  1015.8  0.3  748  279           
00 19.06.18 290 (З) 10 км    5/0 средняя 
[As op]
+15.7 +15.1 96 +26  1016.3  0.4  749  282           
06 19.06.18 200 (Ю) 10 км  в посл. час ливневой дождь  9/8 600 м кучево-дожд., средняя 
[Cb calv|Ac trans]
+17.9 +16.9 94 +31  1017.1  0.6  749  280  +15.5       
09 19.06.18 260 (З) 10 км    8/0 средняя 
[Ac und]
+23.7 +16.4 64 +35  1016  -0.7  749  274           
12 19.06.18 250 (З) 10 км    8/6 600 м кучево-дожд., верхняя 
[Cb calv|Cs]
+26.8 +15.3 49 +36  1014.4  -1.3  748  271           
15 19.06.18 250 (З) 10 км    9/6 1000 м верхняя 
[Cu med, cong|Ci sp]
+26.4 +15.4 51 +36  1012.9  -1.6  747  271           
18 19.06.18 280 (З) 10 км    9/0 средняя, верхняя 
[Ac cast|Ci sp]
+23.5 +14.4 57 +31  1013.2  0.2  747  274    +28       
21 19.06.18 280 (З) 10 км    8/0 средняя, верхняя 
[Ac lent|Ci sp]
+19.7 +11.1 58 +24  1014.6  1.1  748  279           
00 20.06.18 310 (СЗ) 10 км    4/0 средняя, верхняя 
[Ac lent|Ci sp]
+17.7 +11.7 68 +22  1016.4  1.5  749  281           
06 20.06.18 270 (З) 10 км    8/8 1000 м 
[Sc diur, vesp]
+18.7 +11.2 62 +22  1017.7  0.4  750  281  +14.1         
09 20.06.18 260 (З) 4{10}  10 км    8/8 1000 м 
[Cu med, cong]
+21 +11.1 53 +24  1017  -0.5  749  278           
12 20.06.18 280 (З) 4{12}  10 км    1/1 1000 м 
[Cu hum]
+24.1 +8.9 38 +24  1015.8  -1.1  749  276           
15 20.06.18 290 (З) 4{11}  10 км    ясно 
+25.1 +6.7 31 +25  1015  -0.6  748  275           
18 20.06.18 270 (З) 2{10}  10 км    ясно 
+22.7 +7.8 38 +23  1015.1  -0.1  748  277    +25.5       
21 20.06.18 240 (ЮЗ) 10 км    ясно 
+16.7 +8.8 60 +18  1016.5  749  283           
00 21.06.18 210 (ЮЗ) 10 км    ясно 
+11.9 +10.2 89 +14  1017.1  0.3  749  287           
09 21.06.18 190 (Ю) 10 км    ясно 
+25.4 +11.8 43 +29  1014.2  -1.9  747  273           
Время (UTC), дата Ветер
(°,м/с) 
Видим.   Явления Облачность Т
(°С)
Тd
(°С)
f(%) Тe
(°С)
Pmin
(гПа)
dP
(гПа)
Po
(мм)
O2
(г/м3)
Тmin Tmax R s Состояние
почвы

Для получения пояснительной информации подведите курсор к названию столбца.

ПОГОДА Березино - архив

Всё, что Вы хотите узнать о погоде Березино - удобно и подробно!

Выберите нужную дату (начиная с 1 января 2015* года) и нажмите кнопку "Найти".
Будут отображены архивные сводки погоды по пункту Березино, начиная с указанной даты.


Отображать данные в формате CSV (для использования в таблицах Excel)


Внимание! Наш архив погоды предназначен исключительно для личного некоммерческого использования в познавательных целях. Если Вам необходимы официальные справки о состоянии погоды (для производственных, юридических, коммерческих и т.п. целей), обращайтесь в органы Росгидромета.

*Примечание: данная дата относится к архиву по метеостанциям СССР (Россия, СНГ, Балтия).
Архив по метеостанциям Зарубежной Европы и Азии (кроме Китая) хранится 10 дней, по другим регионам земного шара (Китай, Африка, Америка, Австралия, Океания) - 1 день.

Березино - район местоположения метеостанции


Название, широта, долгота, высота метеостанции:
Березино 53.8°ш. 29°д. 154 м над ур. моря [Беларусь]

Дополнительная информация

В oтличие oт бoльшинства пoгoдных сайтoв мы публикуем пoдрoбную метеoинфoрмацию в детальнoм прoфессиoнальнoм фoрмате.

Характеристики температуры и влажнoсти вoздуха измеряются на высoте 2 м в тени вдали oт зданий и деревьев.
Скoрoсть ветра измеряется на высoте 10 м (на урoвне рoста челoвека скoрoсть ветра ниже в 1.5-2 раза). Если метеoстанция нахoдится в гoрoде или в лесу, тo скoрoсть ветра занижена на 2-4 м/с пo сравнению с oткрытым местoм. Скoрoсть ветра над акватoриями крупных рек и oзёр, а также на вершинах хoлмoв на 2-5 м/с выше, чем в oбычных услoвиях.
Атмoсфернoе давление в разных тoчках местнoсти мoжет значительнo oтличаться oт давления на метеoстанции, в зависимoсти oт услoвий рельефа (при пoдъёме на 10 м давление пoнижается примернo на 1 мм рт.ст.).